Погода в Челябинске

Погода в Челябинске : погода сейчас, прогноз погоды и архив. Всё, что Вы хотите узнать о погоде в Челябинске!

Хотите узнать прогноз погоды в Челябинске? Тогда Вам сюда: Погода в Челябинске

Поиск расширенной информации на нашем сайте:

Другие новости

Новости СМИ2

Главная страница сайта

Новости сайта

03.07.2017

Напоминаем, что на нашем специализированном сайте Метеоцентр.Азия вы можете получить высокодетализированные автоматические прогнозы погоды по пунктам России, СНГ и мира в авиационном формате (включающие направление и скорость ветра, видимость, явления погоды, количество и форму облачности, нижнюю и верхнюю границу облачности).

Рекомендуем: лучшие строительные порталы Москвы

Погода в Челябинске - сегодня

Время (UTC), дата Ветер
(°,м/с) 
Видим.   Явления Облачность Т
(°С)
Тd
(°С)
f(%) Тe
(°С)
Pmin
(гПа)
dP
(гПа)
Po
(мм)
O2
(г/м3)
Тmin Tmax R s Состояние
почвы
18 11.08.18 310 (СЗ) 4000 м  {ливн. осадки}  ясно 
+16.1 +8.5 61 +17  1009.1  1.9  736  279           
21 11.08.18 310 (СЗ) 4000 м    ясно 
+14.4 +9 70 +15  1010.4  1.1  737  280           
00 12.08.18 300 (СЗ) 20000 м    ясно 
+12.9 +9.1 78 +13  1011.3  0.7  737  282           
06 12.08.18 290 (З) 10 км    9/9 300 м кучево-дожд. 
[Cb calv]
+18.5 +11 62 +22  1012  0.3  738  277           
09 12.08.18 310 (СЗ) 10 км    10/10 300 м кучево-дожд. 
[Cb calv]
+18.4 +13 71 +25  1012.3  0.3  739  276           
12 12.08.18 160 (Ю) 10 км    ясно 
+22.4 +14.8 62 +31  1011.2  -0.7  738  272           
18 12.08.18 тихо ()   4000 м    ясно 
+16.8 +15.8 94 +27  1012.6  0.7  739  277           
21 12.08.18 тихо ()   4000 м    ясно 
+16.1 +15.3 95 +26  1012.9  0.2  739  278           
00 13.08.18 190 (Ю) 20000 м    9/9 300 м кучево-дожд. 
[Cb calv]
+16 +15.2 95 +26  1012.8  -0.1  739  278           
06 13.08.18 150 (ЮВ) 1000 м    4/4 300 м кучево-дожд. 
[Cb calv]
+25 +16.3 58 +36  1012.5  739  269           
09 13.08.18 190 (Ю) 10 км    3/3 300 м кучево-дожд. 
[Cb calv]
+27.8 +12.8 40 +33  1011.5  -0.8  739  268           
12 13.08.18 180 (Ю) 10 км  в посл. час ливневой дождь  9/9 300 м кучево-дожд. 
[Cb calv]
+23.2 +17.7 71 +37  1011.4  -0.4  738  270           
18 13.08.18 180 (Ю) 4000 м    ясно 
+19.9 +15.5 76 +31  1010.9  0.4  738  274           
21 13.08.18 180 (Ю) 4000 м    ясно 
+18.3 +15 81 +29  1010.9  -0.2  738  275           
00 14.08.18 тихо ()   20000 м    9/9 300 м кучево-дожд. 
[Cb calv]
+15.8 +14.7 93 +24  1010.5  -0.6  737  278           
06 14.08.18 300 (СЗ) 10 км    10/10 300 м кучево-дожд. 
[Cb calv]
+23.3 +14.5 58 +32  1010.1  0.2  737  271           
09 14.08.18 190 (Ю) 10 км    10/10 300 м кучево-дожд. 
[Cb calv]
+24.9 +13.3 48 +31  1009.5  -0.4  737  270           
12 14.08.18 040 (СВ) 10 км  слаб. ливневой дождь{гроза}  10/10 300 м кучево-дожд. 
[Cb calv]
+21.3 +14.1 64 +29  1008.9  -0.9  736  272           
18 14.08.18 240 (ЮЗ) 4000 м  {ливн. осадки}  10/10 300 м кучево-дожд. 
[Cb calv]
+18.7 +15.1 80 +29  1008.3  -0.2  736  274           
21 14.08.18 340 (С) 4000 м  {ливн. осадки}  9/9 300 м кучево-дожд. 
[Cb calv]
+16.3 +14.6 90 +27  1008  -0.6  735  277           
00 15.08.18 340 (С) 10 км  слаб. ливневой дождь  10/10 300 м кучево-дожд. 
[Cb calv]
+15.4 +14.2 93 +25  1005.6  -2.4  734  277           
03 15.08.18 320 (СЗ) 4{10}  10 км  слаб. ливневой дождь  10/10 300 м кучево-дожд. 
[Cb calv]
+14.9 +13.7 93 +22  1007.4  1.7  735  278  +14.9      влажная 
09 15.08.18 310 (СЗ) 4000 м  ливневой дождь  10/10 300 м кучево-дожд. 
[Cb calv]
+13.4 +12.2 92 +18  1009.9  1.3  737  280           
12 15.08.18 310 (СЗ) 10 км  слаб. ливневой дождь  10/10 300 м кучево-дожд. 
[Cb calv]
+15 +13.6 91 +22  1010.4  0.6  737  279           
15 15.08.18 310 (СЗ) 3-10{10}  10 км  {ливн. осадки}  10/10 300 м кучево-дожд. 
[Cb calv]
+16.2 +13.1 82 +23  1010.9  0.6  737  278    +16.2  16     
Время (UTC), дата Ветер
(°,м/с) 
Видим.   Явления Облачность Т
(°С)
Тd
(°С)
f(%) Тe
(°С)
Pmin
(гПа)
dP
(гПа)
Po
(мм)
O2
(г/м3)
Тmin Tmax R s Состояние
почвы

Для получения пояснительной информации подведите курсор к названию столбца.

ПОГОДА в Челябинске - архив

Всё, что Вы хотите узнать о погоде в Челябинске - удобно и подробно!

Выберите нужную дату (начиная с 1 января 2015* года) и нажмите кнопку "Найти".
Будут отображены архивные сводки погоды по пункту Челябинск, начиная с указанной даты.


Отображать данные в формате CSV (для использования в таблицах Excel)


Внимание! Наш архив погоды предназначен исключительно для личного некоммерческого использования в познавательных целях. Если Вам необходимы официальные справки о состоянии погоды (для производственных, юридических, коммерческих и т.п. целей), обращайтесь в органы Росгидромета.

*Примечание: данная дата относится к архиву по метеостанциям СССР (Россия, СНГ, Балтия).
Архив по метеостанциям Зарубежной Европы и Азии (кроме Китая) хранится 10 дней, по другим регионам земного шара (Китай, Африка, Америка, Австралия, Океания) - 1 день.

Челябинск - район местоположения метеостанции


Название, широта, долгота, высота метеостанции:
Челябинск (город) 55.2°ш. 61.3°д. 237 м над ур. моря [Российская Федерация]

Дополнительная информация

В oтличие oт бoльшинства пoгoдных сайтoв мы публикуем пoдрoбную метеoинфoрмацию в детальнoм прoфессиoнальнoм фoрмате.

Характеристики температуры и влажнoсти вoздуха измеряются на высoте 2 м в тени вдали oт зданий и деревьев.
Скoрoсть ветра измеряется на высoте 10 м (на урoвне рoста челoвека скoрoсть ветра ниже в 1.5-2 раза). Если метеoстанция нахoдится в гoрoде или в лесу, тo скoрoсть ветра занижена на 2-4 м/с пo сравнению с oткрытым местoм. Скoрoсть ветра над акватoриями крупных рек и oзёр, а также на вершинах хoлмoв на 2-5 м/с выше, чем в oбычных услoвиях.
Атмoсфернoе давление в разных тoчках местнoсти мoжет значительнo oтличаться oт давления на метеoстанции, в зависимoсти oт услoвий рельефа (при пoдъёме на 10 м давление пoнижается примернo на 1 мм рт.ст.).